Weather History for Boone, NC

Change the Weather History Date:

Saturday, July 13, 2013

  Actual Average (KGEV) Record (KGEV)
Temperature  
Mean Temperature 64 °F -  
Max Temperature 69 °F 80 °F 88 °F (1980)
Min Temperature 59 °F 59 °F 49 °F (1973)
Degree Days  
Heating Degree Days 1    
Growing Degree Days 14 (Base 50)    
Moisture  
Dew Point 63 °F    
Average Humidity 98    
Maximum Humidity 100    
Minimum Humidity 87    
Precipitation  
Precipitation 0.19 in - - ()
Sea Level Pressure  
Sea Level Pressure 30.21 in    
Wind  
Wind Speed 5 mph (ESE)    
Max Wind Speed 10 mph    
Max Gust Speed 21 mph    
Visibility 6 miles    
Events Fog , Rain , Thunderstorm    
Averages and records for this station are not official NWS values.
T = Trace of Precipitation, MM = Missing Value Source: NWS Daily Summary

Daily Weather History Graph

Daily Weather History Graph

Search for Another Location

Airport:

Trip Planner

Search our weather history database for the weather conditions in past years. The results will help you decide how hot, cold, wet, or windy it might be!

Date:

Astronomy

Jul. 13, 2013 Rise Set
Actual Time 6:19 AM EDT 8:44 PM EDT
Civil Twilight 5:50 AM EDT 9:14 PM EDT
Nautical Twilight 5:13 AM EDT 9:50 PM EDT
Astronomical Twilight 4:33 AM EDT 10:31 PM EDT
Moon 11:23 AM EDT (7/13) 11:36 PM EDT (7/13)
Length of Visible Light 15h 24m
Length of Day
14h 25m
Waxing Crescent, 25% of the Moon is Illuminated
Jul 13
Waxing Crescent
Jul 15
First Quarter
Jul 22
Full
Jul 29
Last Quarter
Aug 6
New

Hourly Weather History & Observations

Time (EDT) Temp. Dew Point Humidity Pressure Visibility Wind Dir Wind Speed Gust Speed Precip Events Conditions
12:15 AM 61.7 °F 61.7 °F 100% 30.14 in 7.0 mi Calm Calm - 0.01 in Rain Light Rain
12:35 AM 61.9 °F 61.9 °F 100% 30.15 in 7.0 mi Calm Calm - 0.01 in Rain , Thunderstorm Light Thunderstorms and Rain
12:55 AM 61.5 °F 61.5 °F 100% 30.15 in 5.0 mi ESE 4.6 mph - 0.01 in   Overcast
1:15 AM 61.3 °F 61.3 °F 100% 30.15 in 5.0 mi SE 3.5 mph - N/A   Overcast
1:35 AM 61.0 °F 61.0 °F 100% 30.15 in 4.0 mi SE 6.9 mph - N/A   Overcast
1:55 AM 60.8 °F 60.8 °F 100% 30.14 in 5.0 mi ESE 5.8 mph - N/A Thunderstorm Overcast
2:15 AM 60.8 °F 60.8 °F 100% 30.14 in 4.0 mi ESE 4.6 mph - N/A   Overcast
2:35 AM 60.8 °F 60.8 °F 100% 30.15 in 3.0 mi Calm Calm - N/A   Overcast
2:55 AM 60.8 °F 60.8 °F 100% 30.15 in 4.0 mi ESE 3.5 mph - N/A   Overcast
3:15 AM 60.6 °F 60.6 °F 100% 30.15 in 3.0 mi ESE 5.8 mph - N/A   Overcast
3:35 AM 60.1 °F 60.1 °F 100% 30.15 in 5.0 mi East 6.9 mph - N/A   Overcast
3:55 AM 60.1 °F 60.1 °F 100% 30.15 in 5.0 mi ESE 8.1 mph - N/A Rain Light Rain
4:15 AM 60.1 °F 60.1 °F 100% 30.15 in 4.0 mi ESE 5.8 mph - N/A   Overcast
4:35 AM 60.1 °F 60.1 °F 100% 30.15 in 4.0 mi ESE 8.1 mph - N/A   Overcast
4:55 AM 60.1 °F 60.1 °F 100% 30.14 in 5.0 mi ESE 6.9 mph - N/A   Overcast
5:15 AM 60.1 °F 60.1 °F 100% 30.14 in 3.0 mi ESE 9.2 mph - N/A   Overcast
5:35 AM 60.1 °F 60.1 °F 100% 30.14 in 2.5 mi ESE 6.9 mph - N/A   Overcast
5:55 AM 60.1 °F 60.1 °F 100% 30.16 in 0.8 mi ESE 9.2 mph - N/A   Overcast
6:15 AM 59.9 °F 59.9 °F 100% 30.17 in 3.0 mi ESE 5.8 mph - N/A   Overcast
6:35 AM 60.1 °F 60.1 °F 100% 30.17 in 1.8 mi ESE 6.9 mph - N/A   Overcast
6:55 AM 60.1 °F 60.1 °F 100% 30.17 in 1.8 mi ESE 4.6 mph - N/A   Overcast
7:15 AM 60.3 °F 60.3 °F 100% 30.18 in 0.2 mi East 4.6 mph - 0.01 in Fog Fog
7:35 AM 60.3 °F 60.3 °F 100% 30.19 in 0.2 mi Calm Calm - 0.01 in Fog Fog
7:55 AM 60.4 °F 60.4 °F 100% 30.20 in 0.2 mi ESE 4.6 mph - 0.01 in Fog Fog
8:15 AM 60.8 °F 60.8 °F 100% 30.20 in 0.2 mi East 4.6 mph - N/A Fog Fog
8:35 AM 60.8 °F 60.8 °F 100% 30.20 in 0.2 mi East 5.8 mph - N/A Fog Fog
8:55 AM 61.0 °F 61.0 °F 100% 30.21 in 0.2 mi SE 3.5 mph - N/A Rain Rain
9:15 AM 61.2 °F 61.2 °F 100% 30.22 in 0.2 mi Calm Calm - N/A   Drizzle
9:35 AM 61.3 °F 61.3 °F 100% 30.22 in 0.5 mi East 3.5 mph - N/A   Light Drizzle
9:55 AM 61.7 °F 61.7 °F 100% 30.22 in 1.2 mi East 3.5 mph - N/A   Heavy Drizzle
10:15 AM 61.9 °F 61.9 °F 100% 30.23 in 2.0 mi ESE 5.8 mph - N/A   Overcast
10:35 AM 62.4 °F 62.4 °F 100% 30.23 in 4.0 mi East 3.5 mph - N/A   Overcast
10:55 AM 62.4 °F 62.4 °F 100% 30.25 in 5.0 mi East 3.5 mph - N/A Rain Rain
11:15 AM 63.3 °F 63.3 °F 100% 30.25 in 7.0 mi ESE 4.6 mph - N/A   Overcast
11:35 AM 64.8 °F 64.8 °F 100% 30.24 in 10.0 mi East 3.5 mph - N/A   Overcast
11:55 AM 65.1 °F 64.2 °F 97% 30.24 in 10.0 mi East 5.8 mph - N/A   Overcast
12:15 PM 65.1 °F 63.9 °F 96% 30.25 in 10.0 mi East 3.5 mph - N/A   Mostly Cloudy
12:35 PM 66.6 °F 65.1 °F 95% 30.25 in 10.0 mi ESE 6.9 mph - N/A   Overcast
12:55 PM 67.8 °F 65.5 °F 92% 30.25 in 10.0 mi ESE 10.4 mph - N/A   Mostly Cloudy
1:15 PM 66.4 °F 64.8 °F 95% 30.25 in 10.0 mi ESE 5.8 mph - N/A   Mostly Cloudy
1:35 PM 65.3 °F 64.8 °F 98% 30.25 in 5.0 mi SE 6.9 mph - 0.01 in Rain Light Rain
1:55 PM 66.4 °F 64.8 °F 95% 30.25 in 10.0 mi ESE 6.9 mph 16.1 mph 0.01 in Rain Light Rain
2:15 PM 66.2 °F 64.4 °F 94% 30.24 in 10.0 mi ESE 4.6 mph - N/A   Mostly Cloudy
2:35 PM 66.7 °F 64.8 °F 93% 30.24 in 10.0 mi ESE 5.8 mph - N/A   Mostly Cloudy
2:55 PM 67.3 °F 64.4 °F 90% 30.23 in 10.0 mi East 4.6 mph - N/A   Mostly Cloudy
3:15 PM 67.3 °F 64.9 °F 92% 30.23 in 10.0 mi East 5.8 mph - N/A   Mostly Cloudy
3:35 PM 69.3 °F 65.1 °F 87% 30.23 in 10.0 mi East 3.5 mph - N/A   Mostly Cloudy
3:55 PM 68.4 °F 64.9 °F 89% 30.23 in 10.0 mi East 4.6 mph - N/A   Scattered Clouds
4:15 PM 67.6 °F 64.8 °F 90% 30.23 in 10.0 mi East 5.8 mph - N/A   Mostly Cloudy
4:35 PM 66.2 °F 64.6 °F 94% 30.23 in 10.0 mi East 6.9 mph - N/A   Mostly Cloudy
4:55 PM 66.7 °F 64.8 °F 93% 30.23 in 10.0 mi ESE 6.9 mph - N/A   Mostly Cloudy
5:15 PM 67.6 °F 65.5 °F 93% 30.23 in 10.0 mi ESE 3.5 mph - N/A   Mostly Cloudy
5:35 PM 67.6 °F 65.3 °F 92% 30.23 in 10.0 mi ESE 5.8 mph - N/A   Mostly Cloudy
5:55 PM 66.2 °F 64.4 °F 94% 30.22 in 10.0 mi East 8.1 mph 16.1 mph N/A   Overcast
6:15 PM 66.2 °F 64.4 °F 94% 30.23 in 10.0 mi ESE 5.8 mph - N/A   Mostly Cloudy
6:35 PM 66.4 °F 64.8 °F 95% 30.23 in 10.0 mi ESE 5.8 mph - N/A   Mostly Cloudy
6:55 PM 67.5 °F 65.3 °F 93% 30.23 in 10.0 mi ESE 3.5 mph - N/A   Mostly Cloudy
7:15 PM 66.4 °F 64.6 °F 94% 30.23 in 10.0 mi ESE 6.9 mph 16.1 mph N/A   Light Drizzle
7:35 PM 66.2 °F 65.3 °F 97% 30.24 in 7.0 mi ESE 5.8 mph - N/A   Overcast
7:55 PM 65.8 °F 65.3 °F 98% 30.24 in 7.0 mi ESE 6.9 mph - N/A   Overcast
8:15 PM 65.7 °F 65.3 °F 99% 30.25 in 7.0 mi ESE 6.9 mph - N/A   Overcast
8:35 PM 65.7 °F 65.3 °F 99% 30.25 in 7.0 mi ESE 3.5 mph - N/A   Overcast
8:55 PM 65.3 °F 65.3 °F 100% 30.25 in 5.0 mi ESE 6.9 mph - N/A Rain Light Rain
9:15 PM 65.3 °F 65.3 °F 100% 30.24 in 4.0 mi ESE 6.9 mph - N/A   Overcast
9:35 PM 65.3 °F 65.3 °F 100% 30.25 in 2.5 mi ESE 5.8 mph - 0.01 in Rain Rain
9:55 PM 65.3 °F 65.3 °F 100% 30.25 in 4.0 mi ESE 4.6 mph - 0.03 in Rain Rain
10:15 PM 65.5 °F 65.5 °F 100% 30.25 in 4.0 mi East 6.9 mph - 0.04 in Rain Light Rain
10:35 PM 65.5 °F 65.5 °F 100% 30.25 in 2.5 mi ESE 4.6 mph - 0.09 in Rain Heavy Rain
10:55 PM 65.7 °F 65.7 °F 100% 30.25 in 3.0 mi East 5.8 mph - 0.10 in Rain Heavy Rain
11:15 PM 65.5 °F 65.5 °F 100% 30.25 in 3.0 mi ESE 10.4 mph 20.7 mph 0.01 in Rain Rain
11:35 PM 65.5 °F 65.5 °F 100% 30.25 in 3.0 mi East 6.9 mph 16.1 mph 0.02 in Rain Heavy Rain
11:55 PM 65.5 °F 65.5 °F 100% 30.25 in 3.0 mi East 9.2 mph 17.3 mph 0.03 in   Heavy Drizzle